Location: Co�t-Milin
(48.0761°N, 3.3772°W)
Time: 16:19:25
(UTC+00:00)

Daily predictions for brighter satellites

Satellite Brightness Start Highest point End
(mag) Time Altitude Azimuth Time Altitude Azimuth Time Altitude Azimuth
SeaSat 1 3.7 17:20:28 10° NNE 17:24:59 37° NW 17:29:29 10° WSW
Cosmos 1726 Rocket 4.5 17:22:43 10° NNE 17:26:28 27° ENE 17:30:13 10° SE
Landsat 5 3.3 17:22:50 10° NNE 17:26:49 69° ESE 17:30:40 10° S
NOAA 12 4.1 17:23:56 10° SSE 17:29:10 81° ENE 17:34:26 10° NNW
Cosmos 2263 Rocket 2.3 17:32:10 10° SSW 17:37:46 64° ESE 17:43:23 10° NNE
CZ-4C R/B 2.8 17:34:53 10° N 17:38:02 80° WNW 17:41:11 10° SSW
Cosmos 2279 Rocket 4.2 17:32:32 10° N 17:38:37 50° ENE 17:44:39 10° SSE
CORIOLIS 4.2 17:33:46 10° SSE 17:39:11 83° ENE 17:44:36 10° NNW
Cosmos 1953 4.3 17:36:55 10° NNW 17:40:31 33° W 17:44:06 10° SSW
NOAA 11 4.2 17:35:23 10° SSE 17:40:52 78° ENE 17:46:24 10° NNW
BREEZE-M DEB (TANK) 3.5 17:37:01 10° WNW 17:41:36 48° SSW 17:43:57 10° SE
Cosmos 1455 3.9 17:40:04 10° NE 17:42:00 13° ENE 17:43:57 10° E
Cosmos 1536 Rocket 3.9 17:38:59 10° SSW 17:43:20 69° W 17:47:46 10° N
SMAP 3.3 17:38:42 10° S 17:43:20 78° WSW 17:48:02 10° NNW
USA 234 3.9 17:37:50 10° ENE 17:43:51 41° N 17:49:54 10° WNW
COSMO-SKYMED 1 3.5 17:40:13 10° NE 17:44:00 29° E 17:47:47 10° SSE
COSMOS 2455 3.8 17:39:27 10° SSE 17:44:29 29° ESE 17:49:33 10° NE
Cosmos 1300 2.7 17:42:11 10° N 17:45:59 61° ENE 17:49:45 10° SSE
Cosmos 1939 Rocket 3.1 17:43:13 10° SSE 17:47:13 50° ENE 17:51:11 10° N
Cosmos 1538 Rocket 4.4 17:45:01 10° N 17:49:53 39° ENE 17:54:43 10° SE
Okean-O 3.7 17:47:13 10° ESE 17:50:48 24° ENE 17:54:23 10° N
Cosmos 1634 Rocket 4.1 17:44:50 10° N 17:51:06 89° WSW 17:57:23 10° S
GENESIS II 4.3 17:47:34 10° SSW 17:51:32 64° SE 17:55:16 11° NE
ATLAS 3B R/B 3.5 17:47:14 10° NW 17:54:04 60° WSW 18:01:09 10° SSE
Okean O Rocket 1.8 17:50:53 10° S 17:55:20 77° WSW 17:59:49 10° NNW
Cosmos 1777 Rocket 4.5 17:51:49 10° S 17:56:42 40° ESE 18:01:36 10° NE
Aureole 2 Rocket 4.2 17:55:31 10° ESE 17:56:23 12° ESE 17:56:23 12° ESE
Cosmos 1943 3.4 17:51:27 10° NNW 17:57:09 78° WSW 18:02:47 10° SSE
MOS 1 Rocket 3.9 17:53:30 10° NNE 17:57:17 29° E 18:01:02 10° SSE
ARGOS 4.2 17:53:11 10° ESE 17:57:17 23° ENE 18:01:25 10° N
Meteor 1-24 Rocket 3.6 17:52:03 10° S 17:57:20 63° E 18:02:35 10° NNE
CZ-4 R/B 2.3 17:54:03 10° SE 17:57:32 28° ENE 18:01:01 10° N
NOSS 7 (E) 4.3 17:55:26 10° SW 17:59:10 88° SE 18:01:44 15° NE
Cosmos 1315 Rocket 2.8 17:56:25 10° NNW 18:00:24 88° W 18:04:23 10° S
Cosmos 1354 Rocket 4.1 17:55:42 10° SSW 18:01:01 88° WNW 18:06:25 10° NNE
Feng Yun 1-1 Rocket 4.2 17:56:32 10° SSE 18:01:52 64° ENE 18:07:22 10° N
CZ-2C R/B 4.3 18:04:57 14° E 18:04:57 14° E 18:07:25 10° ESE
H-2A R/B 4.0 18:01:18 10° SSW 18:05:03 39° W 18:08:58 10° NNW
ERS-2 3.1 18:03:34 15° NE 18:05:48 26° E 18:08:54 10° SSE
Cosmos 2082 Rocket 4.2 18:07:51 10° NNE 18:08:41 10° NNE 18:09:32 10° NNE
CSL-04 DEB 4.4 18:04:58 10° NNE 18:09:12 72° ESE 18:13:18 10° S
Cosmos 1833 Rocket 4.4 18:06:36 10° N 18:09:30 14° NNE 18:10:32 13° NE
BREEZE-M DEB (TANK) 1.8 18:07:45 10° W 18:10:10 60° N 18:11:06 28° ENE
Cosmos 1606 Rocket 3.7 18:12:41 10° NNW 18:17:04 77° W 18:21:29 10° S
Cosmos 2227 4.5 18:12:53 10° SW 18:18:31 69° WNW 18:24:12 10° NNE
H-2A R/B 2.9 18:14:11 10° N 18:18:34 53° WNW 18:22:50 10° SSW
YAOGAN 1 2.9 18:14:47 10° SE 18:18:49 40° ENE 18:22:53 10° N
Cosmos 1892 Rocket 3.5 18:15:14 10° S 18:19:30 60° E 18:23:47 10° NNE
IRS-1C Rocket 4.0 18:16:49 10° SSE 18:22:01 70° ENE 18:27:17 10° N
Cosmos 2227 Rocket 4.5 18:20:16 10° WNW 18:23:56 17° NW 18:27:37 10° N
NOSS 3-1 (C) 4.5 18:18:37 10° NW 18:25:12 40° NNE 18:30:09 21° E
CZ-4C R/B 3.4 18:23:42 10° W 18:28:35 36° NNW 18:33:52 12° NNE
X-37B 2.8 18:26:55 10° S 18:28:39 14° SSE 18:28:57 14° SE
ISS -2.0 18:27:55 10° S 18:30:24 19° SE 18:30:32 19° SE
SKYMED 2 3.5 18:27:51 10° NNE 18:32:13 86° ESE 18:36:34 10° SSW
Lacrosse 5 1.9 18:27:39 10° NW 18:32:41 62° NNE 18:35:29 26° ESE
Cosmos 1844 Rocket 3.1 18:27:30 10° S 18:32:43 39° ESE 18:35:26 24° NE
Cosmos 2228 4.1 18:29:02 10° NNW 18:33:07 46° W 18:37:12 10° SSW
Helios 1A Rocket 3.1 18:33:33 10° SE 18:37:33 49° ENE 18:41:34 10° N
Nadezhda 4 Rocket 4.0 18:32:58 10° S 18:39:05 60° E 18:45:12 10° NNE
SJ 16-02 1.8 18:35:32 10° S 18:39:36 38° ESE 18:40:20 35° E
CZ-2C R/B 3.2 18:35:01 10° SSE 18:40:16 82° WSW 18:45:53 10° NNW
USA 229 DEB 4.5 18:34:58 10° NW 18:41:33 37° NNE 18:44:37 27° ENE
USA 229 4.5 18:35:04 10° NW 18:41:37 37° NNE 18:44:41 27° ENE
CZ-2D R/B 3.8 18:38:15 10° S 18:42:04 61° W 18:45:54 10° NNW
RESURS DK-1 4.4 18:42:17 10° WSW 18:45:45 25° NW 18:49:13 10° N
Cosmos 2058 Rocket 3.2 18:41:52 10° NNW 18:46:22 78° W 18:50:53 10° S
H-2A R/B 1.8 18:43:53 10° SSE 18:48:49 74° ENE 18:53:55 10° N
USA 267 4.1 18:48:30 27° ESE 18:50:12 30° SE 18:55:48 10° S
CREW DRAGON DEMO-1 DEB 3.4 18:47:34 10° WNW 18:49:56 45° NNW 18:49:56 45° NNW
Cosmos 923 Rocket 4.0 18:46:29 10° NNW 18:51:46 57° ENE 18:55:17 21° SE
Meteor 2-1 Rocket 4.0 18:48:24 10° N 18:54:01 78° ENE 18:59:33 10° SSE
CZ-4B R/B 2.9 18:52:04 10° N 18:55:14 36° WNW 18:58:20 10° SW
CSL-04 Rocket 3.6 18:51:23 10° SSE 18:56:41 61° ENE 19:02:06 10° N
NOSS 3-1 (A) 4.5 18:50:31 10° NW 18:57:09 40° NNE 18:59:42 32° ENE
Okean 1-7 Rocket 3.6 18:52:39 10° S 18:57:11 85° W 19:01:48 10° N
Meteor 2-10 Rocket 4.0 18:51:42 10° NNW 18:57:14 65° W 19:02:30 10° S
SAR-Lupe-4 3.4 18:56:42 57° NNE 18:57:22 84° ESE 19:00:57 10° SSW
Cosmos 1680 Rocket 3.6 18:54:23 10° NNW 18:59:32 51° ENE 19:00:38 43° E
Cosmos 2344 4.3 18:53:32 10° NW 19:02:11 55° NE 19:08:26 29° ESE
ATLAS 2AS CENTAUR R/B 4.1 18:56:13 10° W 19:03:26 36° NNW 19:08:50 16° NNE
ATLAS 5 CENTAUR R/B 2.9 19:00:07 10° WSW 19:03:55 33° NW 19:06:01 23° NNE
Cosmos 1818 3.6 18:58:44 10° SSW 19:04:03 60° ESE 19:05:20 47° ENE
Meteor 2-13 Rocket 4.3 18:58:12 10° S 19:04:18 86° E 19:10:29 10° N
Cosmos 158 Rocket 3.9 18:59:36 10° NNW 19:04:56 78° ENE 19:09:28 15° SSE
SAR-Lupe-1 4.1 19:08:02 64° NNW 19:08:27 74° WNW 19:12:00 10° SSW
SL-08 RB Rocket 4.2 19:12:00 43° NNE 19:12:00 43° NNE 19:15:15 10° N
Cosmos 1626 Rocket 3.4 19:08:40 10° S 19:13:00 76° E 19:13:07 76° E
Cosmos 2026 Rocket 3.9 19:10:29 10° SSE 19:16:23 55° E 19:18:41 36° NE
PSLV R/B 4.4 19:14:13 24° N 19:16:38 62° WNW 19:20:47 10° SSW
Cosmos 1455 2.8 19:14:14 10° NNW 19:17:59 56° W 19:21:43 10° S
SL-24 R/B - RUBIN 2 4.5 19:13:03 10° SSW 19:19:43 80° SE 19:22:06 43° NE
COSMO-SKYMED 1 4.2 19:16:18 10° N 19:20:11 33° WNW 19:24:03 10° SW
Cosmos 1689 Rocket 4.5 19:22:06 20° SW 19:22:06 20° SW 19:23:10 10° SW
Aureole 3 3.9 19:18:32 10° NNW 19:21:49 45° WNW 19:21:49 45° WNW
Cosmos 2263 Rocket 4.0 19:17:20 10° WSW 19:22:09 27° NW 19:26:44 11° N
USA 234 3.4 19:24:50 49° ENE 19:26:14 59° NNE 19:32:39 10° NW
COSMOS 2406 4.0 19:21:18 10° NNW 19:25:26 35° NNE 19:25:26 35° NNE
Okean-O 3.9 19:22:52 10° S 19:27:03 41° W 19:31:17 10° NNW
Aureole 2 Rocket 4.5 19:26:29 10° SW 19:27:50 22° WSW 19:27:50 22° WSW
Iridium 4 Rocket 3.5 19:23:43 10° N 19:29:32 86° E 19:34:54 10° S
COSMOS 2455 3.2 19:24:06 10° SW 19:30:03 61° NW 19:32:46 33° NNE
CZ-4 R/B 3.3 19:28:51 10° SSW 19:32:29 30° W 19:36:08 10° NNW
Cosmos 2112 Rocket 3.9 19:31:26 10° NNW 19:36:22 77° N 19:36:22 77° N
ARGOS 3.5 19:31:50 10° S 19:37:08 63° WSW 19:42:29 10° NNW
ERS-2 4.2 19:38:08 22° NW 19:39:16 25° WNW 19:42:19 10° WSW
Cosmos 2195 Rocket 4.5 19:35:28 10° S 19:41:47 85° W 19:48:12 10° N
CZ-2C R/B 2.8 19:46:27 67° S 19:46:27 67° S 19:51:14 10° SSW
Cosmos 1627 Rocket 4.4 19:43:45 10° S 19:49:55 83° W 19:56:13 10° N
Meteor 2-15 4.4 19:44:57 10° N 19:50:35 75° NNE 19:50:35 75° NNE
Cosmos 1844 3.9 19:45:42 10° SW 19:51:20 70° WNW 19:51:52 65° NNW
Cosmos 2082 Rocket 3.9 19:49:31 10° NNW 19:51:41 21° N 19:51:41 21° N
Cosmos 1833 Rocket 3.9 19:49:17 10° NNW 19:52:15 30° N 19:52:15 30° N
ISS -0.3 20:03:28 10° WSW 20:03:29 10° WSW 20:03:29 10° WSW
Lacrosse 5 3.4 20:10:55 10° WNW 20:14:44 32° WSW 20:14:44 32° WSW
Cosmos 1844 Rocket 3.8 20:11:18 10° WSW 20:16:36 40° NW 20:17:10 39° NW
NOSS 3-1 (C) 4.0 20:09:19 10° NW 20:16:47 78° SW 20:17:37 71° S
SJ 16-02 3.5 20:14:34 10° WSW 20:17:23 24° WNW 20:17:23 24° WNW
CZ-4C R/B 4.2 20:14:36 10° NW 20:19:03 21° N 20:19:03 21° N
USA 281 4.4 20:34:18 31° NNW 20:34:18 31° NNW 20:37:31 10° NNW
USA 229 DEB 4.1 20:25:54 10° NW 20:32:06 67° WNW 20:32:06 67° WNW
USA 229 4.1 20:26:00 10° NW 20:32:09 66° WNW 20:32:09 66° WNW
USA 267 3.9 20:35:51 48° SW 20:35:51 48° SW 20:40:19 10° SW
CZ-3B R/B 4.3 20:30:42 10° WNW 20:32:17 27° W 20:32:17 27° W
NOSS 3-1 (A) 4.4 20:41:18 10° NW 20:47:11 60° WNW 20:47:11 60° WNW
ATLAS 2AS CENTAUR R/B 4.5 20:50:32 10° NW 20:56:17 24° N 20:56:17 24° N
